Overview Statistics Trail Chart Weather Telemetry Raw packets
 

This is the latest recevied weather packets stored in our database for station/object 9W2CHF-3. If no packets are shown the sender has not sent any weather packets the latest 10 day(s).

<< 3 4 5 6 7 8 9 >>
Time Temp. Humidity Pressure Rain* Wind** Luminosity Snow
1788471361 27.22° C 100% 1012.5 hPa - - - -
1788470161 27.78° C 100% 1012.3 hPa - - - -
1788468961 27.22° C 100% 1012.2 hPa - - - -
1788467761 27.22° C 100% 1012.1 hPa - - - -
1788466561 27.22° C 100% 1012 hPa - - - -
1788465361 27.22° C 98% 1012 hPa - - - -
1788464161 27.22° C 100% 1012.1 hPa - - - -
1788462961 27.22° C 100% 1012.2 hPa - - - -
1788461760 28.33° C 96% 1012.2 hPa - - - -
1788460560 27.78° C 99% 1012.2 hPa - - - -
1788459360 27.78° C 100% 1012.4 hPa - - - -
1788458160 28.33° C 96% 1012.5 hPa - - - -
1788456960 27.78° C 100% 1012.6 hPa - - - -
1788455760 28.33° C 96% 1012.9 hPa - - - -
1788454560 28.33° C 93% 1013 hPa - - - -
1788453360 29.44° C 89% 1013.1 hPa - - - -
1788452160 29.44° C 90% 1013 hPa - - - -
1788450960 30.56° C 86% 1013.3 hPa - - - -
1788449760 30.56° C 85% 1013.4 hPa - - - -
1788448560 31.67° C 79% 1013.5 hPa - - - -
1788447360 32.78° C 76% 1013.2 hPa - - - -
1788446159 30° C 89% 1012.8 hPa - - - -
1788444959 30.56° C 87% 1012.2 hPa - - - -
1788443758 30.56° C 84% 1012.1 hPa - - - -
1788442575 31.11° C 83% 1011.7 hPa - - - -

* Rain since midnight (hover to see other rain measurements)
** Current wind speed in m/s (hover to see current wind gust speed)